Hourly Data Report for October 22, 2016

All times are specified in Local Standard Time (LST). Add 1 hour to adjust for Daylight Saving Time where and when it is observed.

ARVIAT A
NUNAVUT

61°05'38.000" N
94°04'18.000" W
10.40 m
2300427
71174
YEK

Related Data

No related data is available for this station

Download Data

Hourly Data (October 2016)
Hourly Data Report for October 22, 2016
Temp Definition
°C
Dew Point Temp Definition
°C
Rel Hum Definition
%
Wind Dir Definition
10's deg

Wind Spd Definition
km/h
Visibility Definition
km
Stn Press Definition
kPa
Hmdx Definition


Wind Chill Definition


Weather Definition


TIME
00:00 Legend Double Dagger 1.7 1.3 97 11 22 16.1 100.85     LegendNANA
01:00 Legend Double Dagger 1.9 1.8 99 11 26 16.1 100.83     LegendNANA
02:00 Legend Double Dagger 1.9 1.8 99 11 18 16.1 100.85     Rain
03:00 Legend Double Dagger 1.5 1.5 100 11 18 14.5 100.84     LegendNANA
04:00 Legend Double Dagger 2.0 1.9 99 12 21 16.1 100.86     LegendNANA
05:00 Legend Double Dagger 2.0 1.7 98 12 22 16.1 100.87     Rain
06:00 Legend Double Dagger 1.6 1.3 98 11 24 16.1 100.91     Rain
07:00 Legend Double Dagger 1.5 1.4 99 11 32 12.9 100.93     Rain
08:00 Legend Double Dagger 1.4 1.3 99 11 24 16.1 100.97     Rain
09:00 Legend Double Dagger 1.4 1.3 99 11 24 16.1 101.02     Rain
10:00 Legend Double Dagger 1.5 1.2 98 10 26 16.1 101.04     Rain
11:00 Legend Double Dagger 1.3 0.9 97 11 34 16.1 101.08     Rain
12:00 Legend Double Dagger 1.3 1.1 98 11 32 16.1 101.11     Rain
13:00 Legend Double Dagger 1.0 1.0 100 10 28 11.3 101.13     Rain
14:00 Legend Double Dagger 1.0 0.7 98 10 32 16.1 101.14     Rain,Snow
15:00 Legend Double Dagger 0.8 0.3 96 9 30 9.7 101.18     Snow
16:00 Legend Double Dagger 0.8 0.5 98 9 34 9.7 101.20     Snow
17:00 Legend Double Dagger 0.7 0.4 98 9 28 14.5 101.25     Snow
18:00 Legend Double Dagger 0.6 0.3 98 8 26 8.1 101.29     Snow
19:00 Legend Double Dagger 0.7 0.7 100 8 24 14.5 101.30     Snow
20:00 Legend Double Dagger 0.9 0.9 100 8 28 11.3 101.32     Rain
21:00 Legend Double Dagger 1.2 1.1 99 8 32 12.9 101.35     Rain
22:00 Legend Double Dagger 1.4 1.1 98 8 34 11.3 101.37     Rain
23:00 Legend Double Dagger 1.5 1.2 98 7 30 16.1 101.40     LegendNANA

Notes on Data Quality.

Legend

  • E = Estimated
  • M = Missing
  • NA = Not Available
  • ‡ = Partner data that is not subject to review by the National Climate Archives
Date modified: